Temperature
9 8 8 9 9 10 10 10 10 10 11 11 10 10 11 12 12 13 14 15 15 16 17 17 17 17 17 18 18 18 18 18 17 17 17 17 17 16 16 16 15 15 14 14
8 8 9 10 10 10 10 9 9 10 11 11 9 9 10 11 11 13 13 14 15 15 16 17 17 17 17 17 17 17 18 18 17 17 17 17 17 17 17 16 16 15 14 14
8 9 10 10 10 9 9 9 9 9 9 9 8 8 9 9 11 12 13 13 14 14 15 16 16 16 17 17 17 17 17 17 17 17 17 17 17 16 16 16 16 15 15 14
8 9 10 10 10 10 9 10 10 9 8 6 7 6 8 8 9 10 12 14 15 16 16 16 16 16 16 16 16 16 17 17 17 17 16 16 17 16 17 16 16 16 15 15
8 9 9 9 10 10 9 9 9 8 7 6 6 6 7 7 9 11 11 14 16 17 16 16 16 16 16 16 16 16 16 16 16 16 16 16 16 17 17 17 16 16 15 15
9 9 10 9 10 10 9 8 7 6 5 5 5 5 6 7 10 11 12 14 16 16 16 16 16 15 16 16 16 16 16 16 16 16 16 16 16 16 16 16 16 16 15 15
8 9 9 10 9 9 8 6 5 6 6 5 6 5 6 8 9 10 11 13 15 15 15 15 15 15 15 15 15 15 15 15 16 15 15 15 15 16 16 16 16 16 15 14
6 7 8 9 8 7 7 6 5 5 5 5 6 6 7 9 10 11 12 13 13 14 14 14 14 14 14 14 14 14 15 15 15 15 15 15 15 15 15 16 15 15 15 14
6 7 8 9 9 8 7 6 6 5 4 4 5 6 7 10 10 10 11 12 12 12 12 13 13 13 13 13 14 14 14 14 14 14 14 14 14 15 15 15 15 14 14 13
7 7 8 8 9 9 8 7 5 4 4 5 5 5 7 10 10 10 9 10 11 11 11 11 12 12 12 12 13 13 13 13 13 13 14 14 14 14 14 14 14 13 12 12
8 6 7 7 7 6 7 7 6 4 3 4 5 7 8 10 10 9 9 10 10 10 10 10 10 10 11 11 12 12 12 13 13 13 13 13 13 13 13 13 12 12 11 10
8 6 5 6 7 7 7 6 5 4 4 3 3 6 9 8 8 9 9 10 10 9 9 9 9 9 10 10 10 11 11 12 12 12 12 12 12 12 12 11 11 10 10 9
8 5 4 5 6 6 6 6 6 5 4 3 4 6 8 8 9 10 10 9 8 8 8 8 8 8 8 9 9 10 10 11 11 11 11 11 11 11 10 10 9 9 8 7
7 5 4 5 5 6 6 6 6 5 4 4 4 6 8 9 9 9 9 8 7 7 6 7 7 7 7 8 8 9 9 9 9 9 9 9 9 9 9 8 8 7 6 6
7 5 5 5 6 6 6 6 6 5 5 5 5 6 8 9 9 8 7 6 5 5 5 5 5 6 6 6 7 7 7 8 8 8 8 8 7 7 7 6 5 5 4 3
6 6 6 6 6 6 6 6 6 6 6 6 7 7 9 9 8 7 5 4 3 3 3 4 4 5 5 5 5 6 6 6 6 6 6 6 5 5 4 4 3 3 2 2
5 5 6 5 6 6 6 7 7 7 7 7 7 8 9 8 7 5 3 2 2 2 2 3 3 4 4 4 4 4 4 4 4 4 3 3 3 2 2 1 1 1 1 1
5 5 5 6 6 6 8 9 9 8 8 8 8 9 9 8 6 3 2 1 1 1 2 2 2 3 3 3 3 3 2 2 2 1 1 1 1 0 0 0 0 0 1 1
6 6 6 6 6 6 8 9 9 8 8 8 8 8 8 7 5 3 2 1 0 0 1 1 1 2 2 1 2 2 1 1 0 -0 -0 -1 -0 -0 -1 -0 -0 0 0 0
6 6 6 6 6 6 9 10 10 8 8 8 8 7 7 6 6 4 1 1 0 -0 -0 0 0 0 0 0 0 0 -0 -0 -1 -1 -1 -1 -1 -1 -1 -0 -0 -0 -0 -0
6 6 6 6 6 6 8 9 9 8 9 9 8 7 6 5 4 2 1 0 -0 -1 -1 -1 -1 -1 -1 -1 -1 -1 -1 -1 -1 -1 -1 -1 -1 -1 -0 -0 -0 -0 -1 -1
6 6 6 6 6 7 9 9 9 9 9 8 7 6 5 4 2 1 1 -0 -1 -1 -1 -1 -1 -1 -1 -1 -1 -1 -1 -1 -1 -1 -1 -1 -1 -1 -1 -1 -1 -1 -1 -1
6 7 6 7 8 9 9 10 10 9 8 7 6 5 5 3 2 1 1 -0 -1 -1 -1 -2 -1 -2 -2 -1 -1 -1 -1 -1 -1 -1 -1 -1 -1 -1 -1 -1 -1 -1 -2 -2
7 7 7 7 7 8 9 9 9 8 7 7 6 5 4 3 2 1 1 -0 -0 -1 -1 -1 -1 -1 -1 -1 -1 -0 -1 -1 -1 -1 -1 -1 -1 -1 -2 -2 -2 -2 -2 -2
7 7 7 7 8 8 8 9 9 8 7 6 5 5 4 4 2 1 1 0 0 -0 -0 -0 -0 -0 -0 -0 -0 -0 -0 -0 -0 -1 -1 -1 -1 -1 -1 -2 -2 -2 -3 -3
6 7 7 8 8 8 9 9 8 7 6 6 5 4 3 3 3 2 1 1 0 0 0 0 0 0 0 -0 -0 -0 -0 -0 -0 -1 -1 -1 -1 -2 -2 -2 -3 -3 -4 -4
Wind_Speed
5 5 8 11 9 6 6 3 4 5 4 4 7 11 14 12 11 14 15 16 16 16 14 10 10 10 10 9 9 11 13 14 13 11 12 12 12 11 10 9 13 16 16 17
5 6 7 7 6 4 2 2 4 5 4 4 7 13 14 15 14 18 20 20 18 16 13 12 10 9 9 9 9 9 11 12 13 14 13 11 11 8 9 8 9 15 16 17
6 4 7 7 5 5 4 4 4 4 6 6 7 10 9 9 8 12 16 17 17 18 17 14 12 12 10 10 10 9 10 12 13 12 8 4 3 3 3 6 8 9 14 16
3 2 6 7 6 6 3 1 2 2 4 5 4 7 10 8 11 10 10 10 13 14 13 12 11 11 10 10 9 9 9 10 10 11 10 12 11 9 10 9 8 8 10 12
5 4 6 6 5 6 5 4 5 4 3 4 2 4 11 8 8 9 9 9 9 9 8 8 8 8 8 7 7 7 7 8 9 10 14 15 12 8 6 6 9 8 7 9
2 2 4 5 4 6 7 6 6 5 4 5 5 6 8 6 7 8 9 7 5 4 3 3 3 3 3 3 3 4 4 6 7 10 13 15 14 12 11 10 10 8 6 6
3 2 2 4 6 4 6 6 3 2 2 7 4 5 10 12 11 10 10 7 4 3 2 2 2 1 1 2 3 3 3 5 6 8 12 14 15 17 18 15 14 12 9 6
6 4 5 4 5 6 6 7 6 5 4 5 3 7 9 10 9 7 4 3 5 5 4 4 4 3 3 3 3 3 4 5 6 7 10 10 12 12 11 13 13 12 10 8
6 3 3 5 4 7 6 5 5 3 2 4 7 8 10 5 5 6 7 8 8 8 7 7 7 5 5 5 4 5 5 5 6 7 8 8 10 10 11 11 10 8 8 9
5 5 4 4 4 2 4 6 5 4 2 5 7 6 5 5 6 7 8 8 9 10 10 10 9 7 6 6 6 5 6 7 6 6 8 8 9 10 12 12 12 12 12 12
3 6 4 4 6 7 5 4 4 4 4 3 5 8 6 3 4 5 7 8 10 12 13 12 10 8 7 6 6 5 5 4 4 6 7 9 9 11 12 11 12 12 12 14
3 5 3 3 4 6 6 6 6 4 4 4 3 9 8 6 7 8 11 14 14 15 14 12 10 8 7 6 5 4 3 2 3 5 8 9 10 12 12 12 12 13 14 13
5 5 4 2 2 3 5 6 6 5 3 5 5 9 5 6 11 13 16 16 15 15 15 12 9 8 7 5 4 3 1 2 4 7 9 11 11 12 13 14 14 14 15 14
5 4 5 7 5 5 5 7 9 8 5 6 10 15 17 16 17 16 14 13 13 13 12 11 8 6 5 4 3 1 2 4 6 8 10 12 11 12 13 14 14 14 15 15
5 4 4 6 6 5 7 8 10 13 12 10 11 14 21 18 17 13 11 12 13 12 12 11 8 5 4 4 4 4 5 6 8 10 11 11 12 13 14 14 14 15 15 15
4 3 1 4 6 7 8 12 13 14 15 18 21 23 19 14 9 8 9 11 12 12 11 9 7 5 5 5 6 7 8 9 10 12 12 13 14 15 15 15 16 16 15 14
5 4 1 3 5 4 7 11 13 8 9 10 15 13 12 11 9 6 7 9 10 10 9 8 7 6 6 6 8 9 10 11 12 13 13 14 15 16 15 16 16 15 13 13
6 5 2 3 4 5 6 3 7 9 11 12 11 11 11 9 3 2 4 7 8 9 8 7 7 7 8 9 10 11 12 13 14 14 15 15 16 16 15 15 14 13 11 10
5 5 2 2 4 7 7 4 4 4 7 7 9 10 8 4 1 1 5 5 6 7 7 6 7 8 9 10 11 13 14 14 15 15 15 14 15 15 14 13 12 10 9 8
4 4 3 2 3 5 5 2 2 2 5 5 6 8 6 3 3 2 4 5 6 7 7 7 8 9 10 10 11 14 14 14 14 14 14 13 13 13 12 11 9 7 6 6
6 5 6 5 5 7 7 3 3 2 5 3 4 5 3 2 2 2 4 5 5 6 7 8 9 9 9 9 12 14 14 13 13 13 13 12 11 11 10 8 6 6 6 6
8 6 6 6 6 8 5 3 4 6 4 2 2 2 3 5 6 5 5 5 6 7 8 8 9 9 9 10 12 13 12 11 11 12 12 11 10 8 8 7 6 6 6 7
8 8 6 8 9 6 3 4 3 1 3 3 2 3 6 7 6 6 6 6 6 7 7 8 9 9 9 9 10 12 10 10 11 11 11 9 9 7 6 6 6 5 5 5
4 4 4 5 8 8 6 4 3 2 3 2 3 5 7 7 8 8 7 7 7 7 7 8 9 9 8 8 9 10 9 9 11 11 9 8 8 7 6 5 5 5 4 4
4 4 4 6 7 5 5 4 3 2 2 2 3 4 7 10 9 8 8 8 7 7 7 7 8 9 9 8 9 8 8 9 10 9 8 7 6 6 6 5 4 4 2 3
4 6 5 6 6 4 5 3 4 4 4 4 5 5 7 9 10 9 8 8 8 8 8 8 8 9 9 9 8 7 7 8 10 8 7 5 5 5 5 5 5 7 5 6
Wind_Direction
152 155 185 191 187 169 151 164 245 258 312 325 272 270 272 268 263 263 263 260 258 259 260 258 250 246 248 249 234 216 211 210 202 195 194 193 198 196 194 194 189 185 179 174
142 203 194 181 193 206 221 273 278 287 335 333 291 282 270 258 250 248 252 255 256 258 264 259 253 248 242 242 239 226 216 213 206 203 199 197 195 193 192 189 187 185 179 175
160 192 175 174 185 198 213 215 239 288 340 357 338 299 277 278 264 257 251 251 252 251 254 255 253 250 247 244 238 233 221 214 211 207 192 161 120 98 156 187 189 188 181 177
156 183 159 166 182 170 192 131 152 53 24 320 13 306 292 293 303 289 278 264 255 253 250 248 247 247 244 245 244 240 235 224 211 197 187 180 184 187 192 188 183 174 175 175
177 161 142 160 165 145 146 104 85 77 64 329 263 236 286 308 296 297 296 286 270 262 250 249 245 240 244 245 246 245 244 237 219 200 194 195 197 187 165 155 158 162 164 168
131 147 142 148 117 121 123 65 47 53 63 289 225 194 281 272 259 302 317 320 304 287 262 250 252 245 257 263 259 257 249 245 225 207 199 199 190 169 159 163 166 162 155 157
120 96 123 119 112 104 102 90 43 341 265 257 213 200 254 263 269 273 286 307 328 350 4 338 316 306 295 301 290 279 262 255 235 212 206 202 190 179 178 175 173 167 165 168
146 185 193 149 150 152 147 137 165 206 242 287 278 233 255 271 285 290 297 339 5 5 353 326 304 282 273 275 272 270 266 257 239 216 209 199 185 182 181 176 172 174 173 161
151 180 146 153 131 133 142 168 164 128 330 287 282 287 295 275 345 8 17 17 3 347 332 317 306 292 281 278 269 256 254 253 237 214 195 179 174 172 167 160 153 149 141 142
131 122 126 121 104 104 138 145 119 139 197 279 291 273 257 289 344 1 6 1 348 336 324 313 305 292 285 284 280 272 253 242 227 199 182 173 167 161 155 152 151 147 144 143
91 118 127 133 179 182 153 160 150 148 169 195 289 276 230 250 306 322 328 330 328 323 314 306 298 288 284 286 287 284 272 244 205 181 164 155 152 146 145 147 147 143 140 142
128 116 144 219 242 183 171 177 154 165 225 202 227 273 270 271 285 306 317 319 316 310 306 299 293 288 286 291 298 296 285 227 182 156 144 141 137 137 138 138 138 137 136 135
131 116 106 3 309 182 200 192 179 160 168 199 219 262 294 321 317 316 316 314 314 313 311 307 297 285 279 290 302 311 321 135 126 126 128 127 130 133 134 134 134 133 131 128
120 125 168 185 198 180 203 200 187 182 209 230 233 261 287 299 303 309 312 313 313 314 315 313 306 298 301 309 316 8 58 91 107 113 119 122 125 126 126 126 126 126 125 122
109 154 206 238 237 214 217 216 204 209 217 233 254 265 281 292 302 309 319 324 323 325 327 327 326 327 347 11 30 60 77 86 100 106 109 111 113 114 115 115 116 115 113 112
113 148 212 283 257 233 242 237 225 229 233 243 261 275 278 288 302 320 333 333 331 332 334 342 356 10 26 44 61 69 76 84 94 99 103 107 109 109 108 108 107 105 103 104
144 146 176 281 310 328 263 233 214 213 218 223 249 261 285 301 315 329 334 334 336 340 349 5 14 29 47 63 76 80 80 85 91 95 98 100 103 102 102 103 102 101 102 101
146 149 174 287 327 253 249 240 191 215 241 233 247 269 288 299 313 58 3 343 348 355 5 19 33 48 57 68 77 82 85 89 91 92 93 96 98 99 99 99 99 99 100 101
152 156 187 251 278 280 283 246 199 221 270 236 241 267 289 320 230 137 26 13 12 13 23 37 51 67 72 76 86 90 89 91 92 94 95 96 98 100 100 99 99 100 104 107
158 149 184 229 265 260 258 251 158 146 273 244 234 267 291 316 294 314 39 32 36 36 39 50 61 70 75 80 90 93 93 92 93 95 96 95 97 100 101 101 102 103 109 114
181 192 210 225 249 268 258 247 133 238 267 261 238 256 260 223 207 109 84 64 59 57 57 63 69 71 73 83 92 94 95 95 97 98 97 95 96 100 103 102 104 110 108 102
182 191 198 196 220 253 253 183 204 242 277 275 252 224 168 139 121 116 105 94 88 81 75 78 80 76 74 85 96 97 96 99 101 100 99 99 100 103 106 104 99 97 100 94
195 197 193 203 222 242 238 229 249 263 268 262 217 173 147 143 141 131 121 112 110 104 97 94 94 90 85 90 101 105 105 107 106 103 101 101 96 92 96 101 100 91 88 92
234 192 205 245 258 259 254 242 241 235 243 246 191 165 155 148 144 139 132 124 122 119 115 112 109 106 101 100 103 108 114 114 110 106 102 99 97 91 84 86 91 94 94 95
236 186 218 252 270 287 263 226 211 188 156 135 133 149 152 146 147 145 139 133 130 125 122 120 118 115 112 110 108 111 115 116 111 106 101 96 93 96 87 78 81 94 102 135
221 198 202 237 242 231 252 213 178 179 184 163 143 133 141 149 148 144 139 135 132 128 125 121 118 117 115 113 109 107 110 116 117 110 101 96 95 91 89 85 65 64 73 70
Height
1477 1482 1483 1484 1486 1488 1491 1493 1495 1492 1487 1486 1484 1482 1476 1472 1472 1470 1467 1465 1463 1461 1462 1465 1468 1470 1472 1474 1476 1478 1481 1483 1486 1488 1490 1492 1494 1496 1499 1501 1504 1507 1509 1511
1479 1480 1479 1481 1484 1487 1490 1493 1494 1491 1487 1486 1485 1480 1471 1466 1463 1461 1459 1457 1456 1456 1457 1459 1461 1464 1465 1467 1469 1471 1473 1476 1478 1480 1482 1485 1487 1490 1493 1496 1499 1502 1504 1506
1476 1477 1477 1481 1484 1488 1490 1492 1492 1492 1489 1488 1488 1479 1469 1458 1454 1452 1450 1449 1448 1449 1449 1451 1454 1457 1459 1461 1463 1464 1466 1468 1470 1473 1476 1478 1481 1483 1486 1489 1492 1495 1498 1501
1475 1475 1476 1480 1483 1485 1490 1489 1489 1491 1496 1499 1497 1495 1471 1462 1455 1448 1444 1443 1442 1443 1444 1446 1448 1450 1452 1454 1456 1458 1459 1461 1463 1466 1467 1469 1471 1474 1477 1481 1485 1489 1492 1495
1475 1475 1476 1480 1481 1483 1488 1488 1490 1493 1498 1503 1500 1502 1477 1466 1457 1447 1442 1440 1439 1440 1442 1443 1444 1446 1447 1449 1450 1451 1453 1454 1456 1458 1459 1462 1465 1467 1471 1475 1478 1482 1485 1489
1474 1474 1476 1478 1480 1482 1486 1491 1495 1499 1504 1509 1500 1504 1485 1468 1457 1449 1443 1441 1439 1440 1440 1441 1442 1443 1444 1444 1445 1446 1447 1448 1449 1450 1452 1454 1457 1460 1464 1467 1471 1475 1479 1482
1476 1476 1476 1477 1482 1485 1488 1500 1509 1507 1506 1504 1493 1497 1482 1459 1453 1451 1447 1443 1441 1441 1441 1440 1440 1440 1441 1441 1441 1441 1442 1442 1443 1444 1445 1447 1450 1453 1457 1461 1465 1468 1472 1475
1480 1482 1478 1478 1481 1486 1489 1497 1509 1509 1507 1500 1489 1488 1470 1454 1450 1447 1445 1443 1442 1441 1441 1440 1440 1439 1438 1437 1437 1437 1436 1437 1437 1438 1438 1440 1443 1446 1450 1454 1458 1462 1465 1469
1478 1480 1477 1477 1479 1483 1490 1495 1498 1506 1509 1508 1495 1483 1466 1451 1449 1446 1444 1443 1442 1442 1441 1439 1437 1436 1434 1433 1432 1431 1431 1431 1431 1431 1432 1433 1436 1439 1444 1448 1452 1456 1460 1463
1470 1479 1478 1478 1480 1483 1486 1490 1500 1510 1512 1506 1496 1486 1470 1454 1451 1448 1446 1444 1443 1441 1439 1437 1434 1432 1430 1428 1427 1426 1426 1425 1425 1425 1426 1427 1430 1434 1438 1442 1446 1450 1454 1458
1469 1479 1481 1481 1484 1486 1488 1491 1495 1505 1509 1509 1501 1478 1457 1452 1451 1449 1447 1444 1442 1439 1436 1433 1430 1427 1425 1424 1422 1421 1420 1420 1419 1420 1420 1422 1425 1428 1433 1437 1441 1445 1449 1453
1469 1478 1484 1484 1481 1481 1485 1488 1494 1505 1507 1506 1508 1479 1451 1451 1449 1448 1445 1442 1438 1435 1431 1427 1424 1422 1420 1418 1417 1415 1415 1414 1414 1415 1415 1418 1421 1424 1428 1432 1437 1441 1445 1449
1469 1479 1490 1490 1489 1485 1484 1485 1488 1493 1498 1504 1501 1475 1449 1448 1446 1444 1442 1438 1434 1430 1425 1421 1418 1416 1415 1413 1412 1411 1410 1410 1410 1411 1412 1414 1417 1421 1425 1429 1433 1437 1441 1445
1468 1478 1486 1486 1483 1481 1481 1481 1483 1489 1494 1494 1485 1467 1451 1448 1445 1442 1439 1435 1431 1426 1421 1417 1413 1411 1410 1409 1408 1407 1407 1407 1407 1408 1410 1412 1415 1419 1423 1426 1430 1435 1439 1443
1468 1477 1479 1478 1476 1476 1477 1477 1478 1481 1481 1482 1470 1462 1449 1445 1442 1439 1436 1432 1428 1423 1419 1414 1411 1409 1407 1406 1405 1405 1405 1405 1406 1407 1409 1411 1415 1418 1422 1425 1429 1434 1438 1444
1469 1474 1475 1475 1471 1473 1473 1470 1471 1471 1470 1468 1462 1455 1444 1442 1439 1437 1434 1431 1427 1422 1418 1414 1411 1409 1407 1406 1405 1405 1405 1405 1407 1408 1410 1412 1415 1418 1422 1425 1429 1434 1440 1446
1471 1474 1477 1478 1472 1470 1470 1458 1460 1461 1457 1457 1455 1448 1440 1439 1437 1435 1433 1430 1427 1423 1418 1415 1412 1410 1408 1408 1407 1407 1407 1408 1409 1410 1412 1415 1417 1420 1424 1428 1433 1438 1443 1449
1470 1474 1476 1475 1474 1474 1457 1447 1448 1450 1448 1447 1444 1441 1438 1437 1435 1434 1432 1430 1426 1423 1420 1417 1414 1412 1411 1410 1410 1410 1411 1411 1413 1414 1416 1419 1421 1425 1429 1434 1438 1443 1448 1452
1466 1470 1473 1473 1471 1467 1453 1446 1445 1447 1445 1440 1440 1438 1436 1435 1434 1433 1431 1429 1426 1424 1421 1419 1417 1415 1414 1414 1414 1414 1415 1416 1417 1419 1421 1424 1427 1430 1435 1439 1443 1447 1451 1454
1466 1468 1472 1471 1469 1465 1449 1443 1442 1446 1444 1437 1437 1435 1434 1434 1433 1433 1431 1428 1426 1424 1423 1421 1419 1419 1418 1418 1418 1418 1419 1420 1422 1424 1426 1430 1433 1436 1440 1444 1447 1450 1453 1456
1465 1467 1468 1468 1467 1458 1445 1441 1444 1447 1442 1435 1434 1433 1432 1432 1433 1433 1430 1429 1427 1426 1425 1423 1423 1422 1422 1422 1422 1422 1423 1425 1427 1429 1432 1435 1439 1442 1445 1448 1451 1454 1456 1457
1458 1460 1461 1462 1462 1457 1439 1440 1442 1439 1434 1432 1431 1431 1430 1430 1430 1430 1430 1429 1428 1428 1427 1426 1426 1425 1426 1426 1427 1427 1428 1431 1433 1435 1438 1441 1444 1447 1449 1452 1454 1456 1457 1458
1452 1452 1452 1452 1449 1439 1437 1437 1435 1434 1432 1430 1429 1428 1428 1428 1429 1430 1430 1430 1430 1430 1430 1430 1429 1429 1430 1431 1432 1432 1434 1436 1439 1441 1444 1446 1448 1451 1453 1455 1457 1457 1458 1458
1446 1445 1446 1445 1439 1436 1434 1433 1432 1431 1430 1428 1427 1427 1427 1427 1428 1430 1430 1431 1432 1432 1432 1433 1433 1433 1435 1436 1438 1439 1440 1443 1444 1446 1448 1450 1453 1454 1456 1457 1458 1458 1458 1458
1442 1442 1442 1440 1436 1433 1431 1430 1430 1429 1428 1426 1426 1426 1426 1427 1428 1429 1431 1432 1433 1434 1435 1436 1437 1438 1439 1441 1442 1444 1446 1448 1449 1451 1453 1454 1456 1457 1458 1459 1459 1458 1457 1457
1438 1438 1439 1436 1432 1432 1429 1428 1428 1427 1426 1425 1425 1425 1426 1427 1428 1429 1431 1433 1434 1436 1437 1439 1440 1442 1443 1445 1447 1449 1451 1452 1454 1455 1456 1457 1458 1459 1459 1459 1458 1457 1456 1455